Regional Weather Roundup
Issued by NWS

Home | Current Version | Previous Version | Graphics & Text | Print | Product List | Glossary On
Versions: 1 2 3 4 5 6 7 8 9 10 11 12 13 14 15 16 17 18 19 20 21 22 23 24 25 26 27 28 29 30 31 32 33 34 35 36 37 38 39 40 41 42 43 44 45 46 47 48 49 50
470
ASUS45 KBOU 251807
RWRCO

WEATHER ROUNDUP FOR COLORADO
NATIONAL WEATHER SERVICE DENVER/BOULDER CO
1200 PM MDT MON SEP 25 2017

NOTE: "FAIR" INDICATES FEW OR NO CLOUDS BELOW 12000 FEET WITH NO
SIGNIFICANT WEATHER AND/OR OBSTRUCTIONS TO VISIBILITY.

COZ001>005-013-030-031-251900-
...NORTHWEST COLORADO...

CITY           SKY/WX    TMP DP  RH WIND       PRES   REMARKS
CRAIG          PTSUNNY   52  30  43 CALM      30.13F
HAYDEN         FAIR      46  28  49 W9        30.14F
MEEKER         FAIR      50  31  48 VRB3      30.12F
RABBIT EARS PA FAIR      32  27  80 W6        30.17F WCI  26
STEAMBOAT SPGS FAIR      45  30  56 SW7       30.12F
WALDEN         FAIR      45  27  49 W5        30.13S
$$

COZ006>008-011-251900-
...WEST CENTRAL VALLEYS...

CITY           SKY/WX    TMP DP  RH WIND       PRES   REMARKS
GRAND JUNCTION FAIR      56  32  40 CALM      30.07F
MONTROSE       FAIR      52  29  41 NW6       30.10F
EAGLE          FAIR      51  22  31 CALM      30.10F
RIFLE          FAIR      53  31  42 W5        30.08F
DELTA          NOT AVBL
NUCLA          FAIR      52  25  35 NW6       30.12F
$$

COZ017>023-064>068-251900-
...SOUTHWEST COLORADO...

CITY           SKY/WX    TMP DP  RH WIND       PRES   REMARKS
DURANGO        FAIR      56  18  22 W8        30.07F
CORTEZ         FAIR      57  19  22 SW8       30.07F
PAGOSA SPRINGS FAIR      54  12  19 W6        30.10F
TELLURIDE      FAIR      48   2  15 W6        30.14S
WOLF CREEK PAS FAIR      34   5  29 S13G23    30.27R WCI  25
$$

COZ009-010-012-014-032>034-037-058>063-251900-
...CENTRAL COLORADO...

CITY           SKY/WX    TMP DP  RH WIND       PRES   REMARKS
ASPEN          FAIR      51  18  27 NW10      30.08F
BUENA VISTA    FAIR      54  26  34 SE9       30.07F
COPPER MTN     FAIR      41   3  20 S15G24    30.19F
BERTHOUD PASS  CLOUDY    27  18  69 SE17G24   30.22S HAZE    WCI  14
COTTONWOOD PAS FAIR      54  32  43 SE12G17   30.13F
GUNNISON       FAIR      49  17  28 VRB6      30.09F
KREMMLING      FAIR      54  25  32 E6        30.11F
LEADVILLE      FAIR      45   9  23 SW9       30.10F
MONARCH PASS   FAIR      37   3  23 SW16      30.31S
SALIDA         FAIR      57  35  44 SE9       30.13F
SUNLIGHT       FAIR      32  21  64 CALM      30.22S
WILKERSON PASS CLOUDY    37  32  81 SW6       30.22F
$$

COZ069>075-251900-
...SAN LUIS VALLEY/SANGRE DE CRISTO MOUNTAINS...

CITY           SKY/WX    TMP DP  RH WIND       PRES   REMARKS
ALAMOSA        FAIR      59  20  22 SW3       30.04F
DEL NORTE      FAIR      55  23  29 SE6       30.07F
LA VETA PASS   LGT RAIN  39  37  93 NE7       30.27F VSB 1/4
SAGUACHE       FAIR      54  21  28 S5        30.07F
$$

COZ035-036-038>040-251900-
...NORTHERN COLORADO FRONT RANGE...

CITY           SKY/WX    TMP DP  RH WIND       PRES   REMARKS
DENVER INTL AP CLOUDY    49  43  80 NE8       30.10S
DMNS CITY PARK   N/A     50  41  71 N7G15     30.10F
AURORA         CLOUDY    47  46  97 N6        30.11F
FRONT RANGE AP PTSUNNY   50  46  87 NE9       30.10F
ERIE MUNI ARPT CLOUDY    49  44  82 N5        30.15F
BOULDER MUN AP CLOUDY    46  43  87 NW3       30.10F
CENTENNIAL     PTSUNNY   48  42  80 VRB7      30.10F
BROOMFIELD     CLOUDY    48  41  76 CALM      30.11F
FORT COLLINS   CLOUDY    50  40  68 CALM      30.12F
LONGMONT       CLOUDY    51  44  76 CALM      30.12F
$$

COZ041-046-047-076>085-087-088-251900-
...PIKES PEAK/PALMER DIVIDE AND SOUTHERN FOOTHILLS...

CITY           SKY/WX    TMP DP  RH WIND       PRES   REMARKS
COLO. SPRINGS  PTSUNNY   53  40  61 NE9       30.09S
A. F. ACADEMY  CLOUDY    48  40  75 N10       30.09S
SCHRIEVER AFB  PTSUNNY   51  39  64 MISG      30.09S
CHEYENNE MTN   PTSUNNY   48  39  69 N8        30.05S
ELLICOTT       FAIR     N/A N/A N/A NE14      30.08S
FALCON         PTSUNNY   51  38  62 N10G22    30.10F
FORT CARSON    CLOUDY    53  40  62 NW6       30.07S
LIMON            N/A    N/A N/A N/A MISG      30.08F
MONUMENT HILL  PTSUNNY   45  37  76 NE7       30.12F
CANON CITY     NOT AVBL
WALSENBURG     NOT AVBL
TRINIDAD       LGT RAIN  49  48  97 N8        30.07S FOG
$$

COZ042>045-048>051-090-091-251900-
...NORTHEAST COLORADO...

CITY           SKY/WX    TMP DP  RH WIND       PRES   REMARKS
GREELEY ARPT   CLOUDY    51  42  71 CALM      30.12F
AKRON          LGT RAIN  47  43  86 N9        30.09F
BURLINGTON     CLOUDY    49  48  97 N14       30.05S FOG
WRAY           CLOUDY    52  45  76 N13       30.06F
YUMA           CLOUDY    46  45  93 N12       30.06F
STERLING       CLOUDY    50  43  76 N6        30.08F
HOLYOKE        CLOUDY    54  46  76 N12G18    30.07F
FORT MORGAN    CLOUDY    51  40  68 N6        30.11F
$$

COZ086-089-092>099-251900-
...SOUTHEAST COLORADO...

CITY           SKY/WX    TMP DP  RH WIND       PRES   REMARKS
PUEBLO         CLOUDY    57  46  66 SE9       30.04F
LA JUNTA       CLOUDY    54  49  83 NE14      30.04F
LAMAR          LGT RAIN  53  49  86 N10       30.00F
SPRINGFIELD      N/A     51  51 100 N8        30.03R
$$




USA.gov is the U.S. government's official web portal to all federal, state and local government web resources and services.